Location: Zagreb
(45.8000°N, 16.0000°E)
Time: 00:45:38
(UTC+01:00)

Transit 2A Rocket - Pass Details

Date: 06 October 2020
Orbit: 586 x 916 km, 66.7° (Epoch: 28 October)

Event Time Altitude Azimuth Distance (km) Brightness Sun altitude
Rises 00:07:58 0° 329° (NNW) 3,423 9.0 -48.6°
Enters shadow 00:09:56 - 332° (NNW) 2,687 8.3 -48.7°
Reaches altitude 10° 00:10:37 10° 334° (NNW) 2,437 - -48.7°
Maximum altitude 00:16:05 53° 51° (NE) 950 - -48.9°
Drops below altitude 10° 00:21:02 10° 128° (SE) 2,206 - -49.1°
Sets 00:23:19 0° 133° (SE) 3,070 - -49.1°
